Regional & State Weather Roundups


656 
ASUS41 KLWX 020810
RWRLWX
REGIONAL WEATHER ROUNDUP
NATIONAL WEATHER SERVICE BALTIMORE MD/WASHINGTON DC
400 AM EDT THU OCT 02 2014
Note: "FAIR" indicates few or no clouds below 12,000 feet
with no significant weather and/or obstructions to visibility.
 TC=TEMPERATURE CELSIUS
 * =Non NWS site. Station does not report precipitation (e.g. rain,
    snow, etc.), thunder, or fog.
DCZ001-MDZ009-015-VAZ040>042-051-053>054-020900-
WASHINGTON METRO
  
CITY           SKY/WX    TMP DP  RH WIND       PRES   REMARKS
WASHINGTON NAT PTCLDY    64  58  80 CALM      30.09S                  
DULLES         PTCLDY    58  58 100 CALM      30.09S FOG              
ANDREWS AFB    FOG       55  55 100 CALM      30.08R VSB 1/2          
QUANTICO       CLEAR     61  58  90 NW6       30.09S                  
COLLEGE PARK*    N/A     57  57 100 CALM      30.08S                  
LEESBURG*      MOCLDY    59  59 100 CALM      30.09S FOG              
MANASSAS*      PTCLDY    61  61 100 CALM      30.08S                  
GAITHERSBURG*  PTCLDY    55  54  94 CALM      30.12S                  
$$
MDZ006>007-011-014-020900-
BALTIMORE METRO
  
CITY           SKY/WX    TMP DP  RH WIND       PRES   REMARKS
BWI AIRPORT    MOCLDY    58  57  97 CALM      30.08S                  
MD SCIENCE CTR   N/A     64  59  83 MISG      30.09R                  
MARTIN STATE   PTCLDY    61  61 100 CALM      30.10S                  
ANNAPOLIS      CLEAR     64  59  83 E3        30.08R                  
FORT MEADE*      N/A     52  52 100 CALM      30.11R VSB 1            
$$
MDZ012-015-019>023-020900-
MARYLAND EASTERN SHORE
  
CITY           SKY/WX    TMP DP  RH WIND       PRES   REMARKS
OCEAN CITY     CLEAR     58  57  97 NW5       30.05S FOG              
SALISBURY      MOCLDY    58  55  90 CALM      30.06S FOG              
BAY BRIDGE AP*   N/A     61  59  94 CALM      30.08S                  
CAMBRIDGE*     CLEAR     55  54  94 CALM      30.07R                  
EASTON*        CLEAR     60  60 100 CALM      30.11S FOG              
$$
MDZ017>025-020900-
SOUTHERN MARYLAND
  
CITY           SKY/WX    TMP DP  RH WIND       PRES   REMARKS
PATUXENT RIVER CLEAR     57  55  93 CALM      30.07S                  
ST INIGOES     CLEAR     58  55  90 CALM      30.06S                  
LEONARDTOWN*   CLEAR     55  54  94 CALM      30.09R                  
$$
MDZ003>005-020900-
NORTH CENTRAL MARYLAND
  
CITY           SKY/WX    TMP DP  RH WIND       PRES   REMARKS
FREDERICK*     FOG       55  55 100 CALM      30.12S VSB 1/4          
HAGERSTOWN APT MOCLDY    54  53  97 NW5       30.09S FOG              
WESTMINSTER*   CLEAR     55  54  94 CALM      30.09F FOG              
$$
MDZ501>502-020900-
WESTERN MARYLAND
  
CITY           SKY/WX    TMP DP  RH WIND       PRES   REMARKS
OAKLAND*       CLOUDY    54 N/A N/A S5        30.11S FOG              
CUMBERLAND*    MOCLDY    55  55 100 CALM      30.12S                  
$$
VAZ025>031-020900-
SHENANDOAH VALLEY
  
CITY           SKY/WX    TMP DP  RH WIND       PRES   REMARKS
WINCHESTER*    CLOUDY    61  59  94 CALM      30.08S FOG              
STAUNTON*      FOG       58  57  96 CALM      30.11S VSB 1/4          
$$
WVZ021-048>050-054>055-020900-
EASTERN WEST VIRGINIA PANHANDLE
  
CITY           SKY/WX    TMP DP  RH WIND       PRES   REMARKS
MARTINSBURG    CLOUDY    59  56  89 N3        30.09S FOG              
PETERSBURG*    CLOUDY   N/A N/A N/A CALM      30.09S FOG              
$$
VAZ036>039-050-020900-
CENTRAL FOOTHILLS
  
CITY           SKY/WX    TMP DP  RH WIND       PRES   REMARKS
CHARLOTTESVILL CLOUDY    63  62  97 CALM      30.08S                  
ORANGE*        MOCLDY    63  61  94 CALM      30.10S FOG              
$$
VAZ055>057-020900-
NORTH AND CENTRAL PIEDMONT
  
CITY           SKY/WX    TMP DP  RH WIND       PRES   REMARKS
FREDERICKSBRG* CLOUDY    63  63 100 CALM      30.07S                  
STAFFORD*      CLOUDY    61  61 100 CALM      30.12S                  
$$
NCZ024-NYZ072-PAZ021-071-VAZ022-071-020900-
OTHER REGIONAL OBSERVATIONS
  
CITY           SKY/WX    TMP DP  RH WIND       PRES   REMARKS
NEW YORK CITY  CLOUDY    61  54  77 NE7       30.11F                  
PHILADELPHIA   CLOUDY    64  56  75 NE3       30.08S                  
PITTSBURGH     FOG       52  52 100 CALM      30.06S VSB 1/16         
ROANOKE        CLOUDY    59  59 100 CALM      30.10S FOG              
RICHMOND       LGT RAIN  64  63  94 CALM      30.08R FOG              
RALEIGH        PTCLDY    60  58  92 CALM      30.07S FOG              
$$
ANZ530>537-020900-
MARINE OBSERVATIONS
  
STATION/POSITION TIME  TEMP    WIND        PRES
                       AIR SEA DIR/SP/G
                 (UTC) (F)     (DEG/KT/KT) (MB)
THOMAS PT LIGHT  0800   64 72   70/  7/  7 1019.5R
BALT KEY BRIDGE  0800   64      30/  4/  4 1018.5R
COVE POINT       0800   64      80/  5/  8 1018.1R
LEWISETTA        0800   65 72  220/  4/  6 1017.7R
SOLOMONS ISLAND  0800      72                N/A
PINEY POINT      0800           60/  3/  3   N/A
$$